Time,TemperatureF,DewpointF,PressureIn,WindDirection,WindDirectionDegrees,WindSpeedMPH,WindSpeedGustMPH,Humidity,HourlyPrecipIn,Conditions,Clouds,dailyrainin,SolarRadiationWatts/m^2,SoftwareType,DateUTC
2013-03-30 00:00:00,39.1,32.2,30.11,WNW,300,4.6,6.9,76,0.00,BKN,,0.00,0.0,WeatherDisplay:10.37,2013-03-30 04:00:00,
2013-03-30 00:05:00,39.0,32.1,30.10,WNW,298,2.9,4.0,76,0.00,OVC,,0.00,0.0,WeatherDisplay:10.37,2013-03-30 04:05:00,
2013-03-30 00:10:00,38.9,32.0,30.11,WNW,298,2.6,3.5,76,0.00,OVC,,0.00,0.0,WeatherDisplay:10.37,2013-03-30 04:10:00,
2013-03-30 00:15:00,38.9,32.0,30.11,WNW,298,3.0,6.0,76,0.00,OVC,,0.00,0.0,WeatherDisplay:10.37,2013-03-30 04:15:00,
2013-03-30 00:20:00,38.9,32.0,30.11,WNW,298,3.5,5.8,76,0.00,OVC,,0.00,0.0,WeatherDisplay:10.37,2013-03-30 04:20:00,
2013-03-30 00:25:00,38.9,32.3,30.11,WNW,300,3.0,7.0,77,0.00,OVC,,0.00,0.0,WeatherDisplay:10.37,2013-03-30 04:25:00,
2013-03-30 00:30:00,38.8,31.9,30.11,WNW,303,5.0,6.0,76,0.00,OVC,,0.00,0.0,WeatherDisplay:10.37,2013-03-30 04:30:00,
2013-03-30 00:35:00,38.9,32.3,30.11,WNW,302,4.2,5.8,77,0.00,OVC,,0.00,0.0,WeatherDisplay:10.37,2013-03-30 04:35:00,
2013-03-30 00:40:00,38.9,32.0,30.11,WNW,301,4.2,6.9,76,0.00,OVC,,0.00,0.0,WeatherDisplay:10.37,2013-03-30 04:40:00,
2013-03-30 00:45:00,38.9,32.0,30.11,WNW,299,3.0,8.0,76,0.00,OVC,,0.00,0.0,WeatherDisplay:10.37,2013-03-30 04:45:00,
2013-03-30 00:50:00,38.9,32.3,30.11,WNW,298,2.0,5.0,77,0.00,OVC,,0.00,0.0,WeatherDisplay:10.37,2013-03-30 04:50:00,
2013-03-30 00:55:00,38.8,31.9,30.11,WNW,298,2.7,4.6,76,0.00,OVC,,0.00,0.0,WeatherDisplay:10.37,2013-03-30 04:55:00,
2013-03-30 01:00:00,38.9,31.9,30.11,WNW,298,3.0,6.0,76,0.00,OVC,,0.00,0.0,WeatherDisplay:10.37,2013-03-30 05:00:00,
2013-03-30 01:05:00,38.9,32.0,30.11,WNW,298,0.7,2.3,76,0.00,OVC,,0.00,0.0,WeatherDisplay:10.37,2013-03-30 05:05:00,
2013-03-30 01:10:00,38.7,31.8,30.11,WNW,299,2.0,5.0,76,0.00,OVC,,0.00,0.0,WeatherDisplay:10.37,2013-03-30 05:10:00,
2013-03-30 01:15:00,38.5,31.6,30.11,WNW,300,2.9,3.5,76,0.00,OVC,,0.00,0.0,WeatherDisplay:10.37,2013-03-30 05:15:00,
2013-03-30 01:20:00,38.4,31.5,30.11,WNW,300,2.0,4.0,76,0.00,OVC,,0.00,0.0,WeatherDisplay:10.37,2013-03-30 05:20:00,
2013-03-30 01:25:00,38.3,31.4,30.11,WNW,300,2.0,4.0,76,0.00,OVC,,0.00,0.0,WeatherDisplay:10.37,2013-03-30 05:25:00,
2013-03-30 01:30:00,38.1,31.2,30.11,WNW,300,1.7,3.5,76,0.00,OVC,,0.00,0.0,WeatherDisplay:10.37,2013-03-30 05:30:00,
2013-03-30 01:35:00,38.0,31.4,30.11,WNW,300,2.0,3.0,77,0.00,OVC,,0.00,0.0,WeatherDisplay:10.37,2013-03-30 05:35:00,
2013-03-30 01:40:00,38.0,31.4,30.11,WNW,300,1.0,4.0,77,0.00,OVC,,0.00,0.0,WeatherDisplay:10.37,2013-03-30 05:40:00,
2013-03-30 01:45:00,37.9,31.3,30.11,WNW,300,2.0,3.5,77,0.00,OVC,,0.00,0.0,WeatherDisplay:10.37,2013-03-30 05:45:00,
2013-03-30 01:50:00,37.7,31.1,30.11,WNW,300,2.0,5.0,77,0.00,OVC,,0.00,0.0,WeatherDisplay:10.37,2013-03-30 05:50:00,
2013-03-30 01:55:00,37.5,30.9,30.11,WNW,300,2.0,6.0,77,0.00,OVC,,0.00,0.0,WeatherDisplay:10.37,2013-03-30 05:55:00,
2013-03-30 02:00:00,37.3,30.7,30.11,WNW,300,2.3,4.0,77,0.00,OVC,,0.00,0.0,WeatherDisplay:10.37,2013-03-30 06:00:00,
2013-03-30 02:05:00,37.1,30.9,30.11,WNW,300,2.3,3.5,78,0.00,FEW,,0.00,0.0,WeatherDisplay:10.37,2013-03-30 06:05:00,
2013-03-30 02:10:00,36.8,30.6,30.11,WNW,300,2.3,3.5,78,0.00,FEW,,0.00,0.0,WeatherDisplay:10.37,2013-03-30 06:10:00,
2013-03-30 02:15:00,36.7,30.5,30.11,WNW,300,2.0,5.0,78,0.00,FEW,,0.00,0.0,WeatherDisplay:10.37,2013-03-30 06:15:00,
2013-03-30 02:20:00,36.8,30.6,30.11,WNW,300,2.5,2.5,78,0.00,FEW,,0.00,0.0,WeatherDisplay:10.37,2013-03-30 06:20:00,
2013-03-30 02:25:00,36.8,30.3,30.11,WNW,300,1.8,3.5,77,0.00,FEW,,0.00,0.0,WeatherDisplay:10.37,2013-03-30 06:25:00,
2013-03-30 02:30:00,36.9,30.4,30.11,WNW,300,1.7,3.5,77,0.00,FEW,,0.00,0.0,WeatherDisplay:10.37,2013-03-30 06:30:00,
2013-03-30 02:35:00,36.8,30.3,30.11,WNW,300,1.3,2.3,77,0.00,FEW,,0.00,0.0,WeatherDisplay:10.37,2013-03-30 06:35:00,
2013-03-30 02:40:00,36.5,30.0,30.11,WNW,300,0.0,0.0,77,0.00,FEW,,0.00,0.0,WeatherDisplay:10.37,2013-03-30 06:40:00,
2013-03-30 02:45:00,36.2,30.0,30.11,WNW,300,0.0,0.0,78,0.00,FEW,,0.00,0.0,WeatherDisplay:10.37,2013-03-30 06:45:00,
2013-03-30 02:50:00,35.9,29.7,30.11,WNW,300,0.0,0.0,78,0.00,FEW,,0.00,0.0,WeatherDisplay:10.37,2013-03-30 06:50:00,
2013-03-30 02:55:00,35.5,29.6,30.11,WNW,300,0.0,0.0,79,0.00,FEW,,0.00,0.0,WeatherDisplay:10.37,2013-03-30 06:55:00,
2013-03-30 03:00:00,35.0,29.1,30.11,WNW,300,0.0,0.0,79,0.00,FEW,,0.00,0.0,WeatherDisplay:10.37,2013-03-30 07:00:00,
2013-03-30 03:05:00,34.6,29.1,30.11,WNW,300,0.0,0.0,80,0.00,FEW,,0.00,0.0,WeatherDisplay:10.37,2013-03-30 07:05:00,
2013-03-30 03:10:00,34.2,29.0,30.11,WNW,300,0.0,1.2,81,0.00,FEW,,0.00,0.0,WeatherDisplay:10.37,2013-03-30 07:10:00,
2013-03-30 03:15:00,33.7,28.8,30.11,WNW,300,0.0,0.0,82,0.00,FEW,,0.00,0.0,WeatherDisplay:10.37,2013-03-30 07:15:00,
2013-03-30 03:20:00,33.3,28.7,30.11,WNW,300,0.0,0.0,83,0.00,FEW,,0.00,0.0,WeatherDisplay:10.37,2013-03-30 07:20:00,
2013-03-30 03:25:00,32.9,28.3,30.11,WNW,300,0.1,1.2,83,0.00,FEW,,0.00,0.0,WeatherDisplay:10.37,2013-03-30 07:25:00,
2013-03-30 03:30:00,32.6,28.3,30.11,WNW,300,0.0,1.2,84,0.00,FEW,,0.00,0.0,WeatherDisplay:10.37,2013-03-30 07:30:00,
2013-03-30 03:35:00,32.3,28.0,30.11,WNW,300,0.2,1.2,84,0.00,FEW,,0.00,0.0,WeatherDisplay:10.37,2013-03-30 07:35:00,
2013-03-30 03:40:00,31.9,27.9,30.11,WNW,300,0.0,0.0,85,0.00,FEW,,0.00,0.0,WeatherDisplay:10.37,2013-03-30 07:40:00,
2013-03-30 03:45:00,31.5,27.8,30.11,WNW,300,0.0,0.0,86,0.00,FEW,,0.00,0.0,WeatherDisplay:10.37,2013-03-30 07:45:00,
2013-03-30 03:50:00,31.1,27.7,30.11,WNW,300,1.6,3.5,87,0.00,FEW,,0.00,0.0,WeatherDisplay:10.37,2013-03-30 07:50:00,
2013-03-30 03:55:00,30.7,27.6,30.11,WNW,300,0.0,0.0,88,0.00,FEW,,0.00,0.0,WeatherDisplay:10.37,2013-03-30 07:55:00,
2013-03-30 04:00:00,30.6,27.5,30.11,WNW,300,1.3,3.5,88,0.00,FEW,,0.00,0.0,WeatherDisplay:10.37,2013-03-30 08:00:00,
2013-03-30 04:05:00,30.3,27.2,30.11,ESE,106,0.0,0.0,88,0.00,FEW,,0.00,0.0,WeatherDisplay:10.37,2013-03-30 08:05:00,
2013-03-30 04:10:00,30.2,27.3,30.11,ESE,106,0.0,1.2,89,0.00,FEW,,0.00,0.0,WeatherDisplay:10.37,2013-03-30 08:10:00,
2013-03-30 04:15:00,30.1,27.3,30.11,ESE,106,0.6,2.0,89,0.00,FEW,,0.00,0.0,WeatherDisplay:10.37,2013-03-30 08:15:00,
2013-03-30 04:21:00,30.0,27.2,30.11,ESE,106,0.0,1.2,89,0.00,FEW,,0.00,0.0,WeatherDisplay:10.37,2013-03-30 08:21:00,
2013-03-30 04:26:00,30.0,27.4,30.11,ESE,106,0.0,0.0,90,0.00,FEW,,0.00,0.0,WeatherDisplay:10.37,2013-03-30 08:26:00,
2013-03-30 04:31:00,30.0,27.4,30.11,ESE,115,0.2,3.5,90,0.00,FEW,,0.00,0.0,WeatherDisplay:10.37,2013-03-30 08:31:00,
2013-03-30 04:36:00,30.0,27.4,30.11,ESE,115,0.0,0.0,90,0.00,FEW,,0.00,0.0,WeatherDisplay:10.37,2013-03-30 08:36:00,
2013-03-30 04:41:00,29.9,27.3,30.11,ESE,115,0.0,0.0,90,0.00,FEW,,0.00,0.0,WeatherDisplay:10.37,2013-03-30 08:41:00,
2013-03-30 04:46:00,29.8,27.2,30.11,ESE,115,0.0,0.0,90,0.00,FEW,,0.00,0.0,WeatherDisplay:10.37,2013-03-30 08:46:00,
2013-03-30 04:51:00,29.6,26.8,30.11,ESE,115,0.0,0.0,89,0.00,FEW,,0.00,0.0,WeatherDisplay:10.37,2013-03-30 08:51:00,
2013-03-30 04:56:00,29.5,26.7,30.11,ESE,115,0.0,0.0,89,0.00,FEW,,0.00,0.0,WeatherDisplay:10.37,2013-03-30 08:56:00,
2013-03-30 05:01:00,29.3,26.5,30.11,ESE,115,0.0,0.0,89,0.00,FEW,,0.00,0.0,WeatherDisplay:10.37,2013-03-30 09:01:00,
2013-03-30 05:06:00,29.2,26.6,30.11,ESE,115,0.0,1.0,90,0.00,FEW,,0.00,0.0,WeatherDisplay:10.37,2013-03-30 09:06:00,
2013-03-30 05:11:00,29.1,26.5,30.11,ESE,115,0.2,2.3,90,0.00,FEW,,0.00,0.0,WeatherDisplay:10.37,2013-03-30 09:11:00,
2013-03-30 05:16:00,29.0,26.7,30.11,ESE,115,0.0,0.0,91,0.00,FEW,,0.00,0.0,WeatherDisplay:10.37,2013-03-30 09:16:00,
2013-03-30 05:21:00,28.8,26.2,30.11,ESE,115,0.0,0.0,90,0.00,FEW,,0.00,0.0,WeatherDisplay:10.37,2013-03-30 09:21:00,
2013-03-30 05:26:00,28.6,26.0,30.11,ESE,115,0.3,1.2,90,0.00,FEW,,0.00,0.0,WeatherDisplay:10.37,2013-03-30 09:26:00,
2013-03-30 05:31:00,28.4,26.1,30.12,ESE,115,0.2,2.3,91,0.00,FEW,,0.00,0.0,WeatherDisplay:10.37,2013-03-30 09:31:00,
2013-03-30 05:34:00,28.4,26.1,30.12,ESE,115,0.1,1.2,91,0.00,FEW,,0.00,0.0,WeatherDisplay:10.37,2013-03-30 09:34:00,
2013-03-30 05:39:00,28.4,26.1,30.12,ESE,115,1.4,3.5,91,0.00,FEW,,0.00,0.0,WeatherDisplay:10.37,2013-03-30 09:39:00,
2013-03-30 05:44:00,28.3,26.0,30.12,ESE,115,0.0,0.0,91,0.00,FEW,,0.00,0.0,WeatherDisplay:10.37,2013-03-30 09:44:00,
2013-03-30 05:49:00,28.1,25.8,30.12,ESE,115,0.0,0.0,91,0.00,FEW,,0.00,0.0,WeatherDisplay:10.37,2013-03-30 09:49:00,
2013-03-30 05:54:00,28.0,25.7,30.12,ESE,115,0.0,0.0,91,0.00,FEW,,0.00,0.0,WeatherDisplay:10.37,2013-03-30 09:54:00,
2013-03-30 05:59:00,28.0,26.0,30.12,ESE,119,0.4,1.2,92,0.00,FEW,,0.00,0.0,WeatherDisplay:10.37,2013-03-30 09:59:00,
2013-03-30 06:04:00,28.0,26.0,30.12,ESE,119,0.0,0.0,92,0.00,CLR,,0.00,0.0,WeatherDisplay:10.37,2013-03-30 10:04:00,
2013-03-30 06:09:00,28.1,26.1,30.12,ESE,123,0.0,4.6,92,0.00,CLR,,0.00,0.0,WeatherDisplay:10.37,2013-03-30 10:09:00,
2013-03-30 06:14:00,28.2,26.2,30.12,ESE,123,0.0,1.2,92,0.00,CLR,,0.00,0.0,WeatherDisplay:10.37,2013-03-30 10:14:00,
2013-03-30 06:19:00,28.3,26.3,30.12,ESE,123,0.0,0.0,92,0.00,CLR,,0.00,0.0,WeatherDisplay:10.37,2013-03-30 10:19:00,
2013-03-30 06:24:00,28.2,26.2,30.12,ESE,123,0.5,2.3,92,0.00,CLR,,0.00,0.0,WeatherDisplay:10.37,2013-03-30 10:24:00,
2013-03-30 06:29:00,28.1,26.1,30.12,ESE,122,0.0,3.5,92,0.00,CLR,,0.00,0.0,WeatherDisplay:10.37,2013-03-30 10:29:00,
2013-03-30 06:34:00,27.9,25.9,30.12,ESE,122,0.1,1.0,92,0.00,CLR,,0.00,0.0,WeatherDisplay:10.37,2013-03-30 10:34:00,
2013-03-30 06:39:00,27.9,25.9,30.13,ESE,122,0.1,0.0,92,0.00,CLR,,0.00,0.0,WeatherDisplay:10.37,2013-03-30 10:39:00,
2013-03-30 06:44:00,28.0,26.2,30.13,ESE,122,0.7,2.0,93,0.00,CLR,,0.00,5.7,WeatherDisplay:10.37,2013-03-30 10:44:00,
2013-03-30 06:49:00,28.0,26.0,30.13,ESE,123,0.1,2.3,92,0.00,CLR,,0.00,10.2,WeatherDisplay:10.37,2013-03-30 10:49:00,
2013-03-30 06:54:00,27.9,25.9,30.13,ESE,123,0.1,0.0,92,0.00,CLR,,0.00,12.4,WeatherDisplay:10.37,2013-03-30 10:54:00,
2013-03-30 06:59:00,27.8,25.8,30.13,ESE,123,0.0,0.0,92,0.00,CLR,,0.00,21.5,WeatherDisplay:10.37,2013-03-30 10:59:00,
2013-03-30 07:04:00,28.0,26.2,30.13,ESE,123,0.0,1.2,93,0.00,CLR,,0.00,33.9,WeatherDisplay:10.37,2013-03-30 11:04:00,
2013-03-30 07:09:00,28.4,26.6,30.13,ESE,123,0.0,0.0,93,0.00,CLR,,0.00,45.2,WeatherDisplay:10.37,2013-03-30 11:09:00,
2013-03-30 07:14:00,28.9,27.1,30.13,ESE,123,0.1,1.0,93,0.00,CLR,,0.00,63.3,WeatherDisplay:10.37,2013-03-30 11:14:00,
2013-03-30 07:19:00,29.3,27.3,30.13,ESE,123,0.8,1.2,92,0.00,CLR,,0.00,79.1,WeatherDisplay:10.37,2013-03-30 11:19:00,
2013-03-30 07:24:00,29.7,27.7,30.13,ESE,122,2.3,4.0,92,0.00,CLR,,0.00,94.9,WeatherDisplay:10.37,2013-03-30 11:24:00,
2013-03-30 07:29:00,30.2,28.2,30.13,ESE,122,2.7,4.6,92,0.00,CLR,,0.00,110.7,WeatherDisplay:10.37,2013-03-30 11:29:00,
2013-03-30 07:34:00,30.7,28.4,30.14,ESE,121,0.1,3.5,91,0.00,CLR,,0.00,125.4,WeatherDisplay:10.37,2013-03-30 11:34:00,
2013-03-30 07:39:00,31.3,29.0,30.14,ESE,122,1.9,4.0,91,0.00,CLR,,0.00,136.7,WeatherDisplay:10.37,2013-03-30 11:39:00,
2013-03-30 07:44:00,31.8,29.2,30.14,ESE,121,1.7,2.0,90,0.00,CLR,,0.00,144.6,WeatherDisplay:10.37,2013-03-30 11:44:00,
2013-03-30 07:49:00,32.4,29.5,30.14,ESE,122,0.3,2.3,89,0.00,CLR,,0.00,154.8,WeatherDisplay:10.37,2013-03-30 11:49:00,
2013-03-30 07:54:00,33.1,29.9,30.14,ESE,121,0.0,0.0,88,0.00,CLR,,0.00,172.9,WeatherDisplay:10.37,2013-03-30 11:54:00,
2013-03-30 07:59:00,33.6,30.1,30.14,ESE,122,0.0,0.0,87,0.00,CLR,,0.00,196.6,WeatherDisplay:10.37,2013-03-30 11:59:00,
2013-03-30 08:04:00,34.3,30.8,30.15,ESE,122,0.1,1.2,87,0.00,CLR,,0.00,220.3,WeatherDisplay:10.37,2013-03-30 12:04:00,
2013-03-30 08:09:00,35.2,31.7,30.15,ESE,122,0.1,1.2,87,0.00,CLR,,0.00,244.1,WeatherDisplay:10.37,2013-03-30 12:09:00,
2013-03-30 08:14:00,35.7,31.9,30.15,ESE,121,0.0,0.0,86,0.00,CLR,,0.00,262.2,WeatherDisplay:10.37,2013-03-30 12:14:00,
2013-03-30 08:19:00,36.2,32.4,30.15,ESE,122,0.0,0.0,86,0.00,CLR,,0.00,270.1,WeatherDisplay:10.37,2013-03-30 12:19:00,
2013-03-30 08:24:00,36.9,32.8,30.15,ESE,122,0.0,0.0,85,0.00,CLR,,0.00,272.3,WeatherDisplay:10.37,2013-03-30 12:24:00,
2013-03-30 08:29:00,37.5,33.1,30.15,ESE,122,0.0,0.0,84,0.00,CLR,,0.00,274.6,WeatherDisplay:10.37,2013-03-30 12:29:00,
2013-03-30 08:34:00,38.3,33.0,30.15,ESE,122,1.6,2.3,81,0.00,CLR,,0.00,275.7,WeatherDisplay:10.37,2013-03-30 12:34:00,
2013-03-30 08:39:00,38.9,32.9,30.15,ESE,122,1.7,2.3,79,0.00,CLR,,0.00,280.2,WeatherDisplay:10.37,2013-03-30 12:39:00,
2013-03-30 08:44:00,39.4,33.4,30.15,SE,134,1.3,3.5,79,0.00,CLR,,0.00,285.9,WeatherDisplay:10.37,2013-03-30 12:44:00,
2013-03-30 08:49:00,39.8,33.5,30.15,SE,134,1.4,4.0,78,0.00,CLR,,0.00,296.1,WeatherDisplay:10.37,2013-03-30 12:49:00,
2013-03-30 08:54:00,40.1,33.1,30.15,SE,140,0.3,2.3,76,0.00,CLR,,0.00,306.2,WeatherDisplay:10.37,2013-03-30 12:54:00,
2013-03-30 08:59:00,40.6,33.3,30.15,SSE,157,1.2,4.0,75,0.00,CLR,,0.00,322.1,WeatherDisplay:10.37,2013-03-30 12:59:00,
2013-03-30 09:04:00,41.2,33.9,30.15,SSW,202,0.0,0.0,75,0.00,CLR,,0.00,341.3,WeatherDisplay:10.37,2013-03-30 13:04:00,
2013-03-30 09:09:00,41.8,33.8,30.14,SSW,202,0.0,1.2,73,0.00,CLR,,0.00,363.9,WeatherDisplay:10.37,2013-03-30 13:09:00,
2013-03-30 09:14:00,42.0,34.0,30.15,SSW,202,2.1,3.5,73,0.00,CLR,,0.00,383.1,WeatherDisplay:10.37,2013-03-30 13:14:00,
2013-03-30 09:19:00,41.9,33.2,30.15,West,273,0.0,0.0,71,0.00,CLR,,0.00,403.4,WeatherDisplay:10.37,2013-03-30 13:19:00,
2013-03-30 09:24:00,41.8,33.4,30.15,NNW,340,0.6,3.5,72,0.00,CLR,,0.00,427.1,WeatherDisplay:10.37,2013-03-30 13:24:00,
2013-03-30 09:29:00,42.1,33.7,30.14,NNW,340,0.0,1.2,72,0.00,CLR,,0.00,453.1,WeatherDisplay:10.37,2013-03-30 13:29:00,
2013-03-30 09:34:00,42.8,34.4,30.15,NNW,340,0.1,1.2,72,0.00,CLR,,0.00,476.9,WeatherDisplay:10.37,2013-03-30 13:34:00,
2013-03-30 09:39:00,43.2,34.1,30.14,NNW,340,0.6,1.2,70,0.00,CLR,,0.00,502.9,WeatherDisplay:10.37,2013-03-30 13:39:00,
2013-03-30 09:44:00,43.7,34.2,30.14,NNW,338,1.7,3.5,69,0.00,CLR,,0.00,518.7,WeatherDisplay:10.37,2013-03-30 13:44:00,
2013-03-30 09:49:00,44.1,33.5,30.14,NNW,338,1.4,2.3,66,0.00,CLR,,0.00,544.7,WeatherDisplay:10.37,2013-03-30 13:49:00,
2013-03-30 09:54:00,44.5,34.2,30.14,WNW,298,2.4,4.0,67,0.00,CLR,,0.00,579.7,WeatherDisplay:10.37,2013-03-30 13:54:00,
2013-03-30 09:59:00,45.0,33.5,30.14,WNW,298,2.8,5.0,64,0.00,CLR,,0.00,618.1,WeatherDisplay:10.37,2013-03-30 13:59:00,
2013-03-30 10:04:00,45.2,33.7,30.14,WNW,292,3.5,3.5,64,0.00,CLR,,0.00,652.0,WeatherDisplay:10.37,2013-03-30 14:04:00,
2013-03-30 10:10:00,45.3,33.8,30.14,WNW,300,4.3,5.8,64,0.00,CLR,,0.00,673.5,WeatherDisplay:10.37,2013-03-30 14:10:00,
2013-03-30 10:15:00,45.1,33.6,30.14,NW,315,2.5,3.5,64,0.00,CLR,,0.00,657.7,WeatherDisplay:10.37,2013-03-30 14:15:00,
2013-03-30 10:20:00,45.3,34.2,30.14,NW,310,3.7,4.6,65,0.00,CLR,,0.00,705.1,WeatherDisplay:10.37,2013-03-30 14:20:00,
2013-03-30 10:25:00,45.6,34.1,30.14,WNW,295,3.8,4.6,64,0.00,CLR,,0.00,723.2,WeatherDisplay:10.37,2013-03-30 14:25:00,
2013-03-30 10:30:00,45.7,33.0,30.14,West,270,3.8,4.6,61,0.00,CLR,,0.00,736.8,WeatherDisplay:10.37,2013-03-30 14:30:00,
2013-03-30 10:35:00,46.2,33.9,30.14,West,270,0.1,1.2,62,0.00,CLR,,0.00,746.9,WeatherDisplay:10.37,2013-03-30 14:35:00,
2013-03-30 10:40:00,46.8,33.6,30.14,WNW,286,3.6,4.6,60,0.00,CLR,,0.00,757.1,WeatherDisplay:10.37,2013-03-30 14:40:00,
2013-03-30 10:45:00,47.0,33.0,30.14,WNW,296,2.0,6.9,58,0.00,CLR,,0.00,770.7,WeatherDisplay:10.37,2013-03-30 14:45:00,
2013-03-30 10:50:00,47.4,33.4,30.14,WNW,296,2.2,6.0,58,0.00,CLR,,0.00,784.2,WeatherDisplay:10.37,2013-03-30 14:50:00,
2013-03-30 10:55:00,47.9,32.9,30.13,WNW,291,2.3,5.8,56,0.00,CLR,,0.00,798.9,WeatherDisplay:10.37,2013-03-30 14:55:00,
2013-03-30 11:00:00,47.9,32.5,30.13,WNW,294,3.3,4.0,55,0.00,CLR,,0.00,810.2,WeatherDisplay:10.37,2013-03-30 15:00:00,
2013-03-30 11:05:00,47.9,32.0,30.13,WNW,302,3.3,4.0,54,0.00,FEW,,0.00,814.7,WeatherDisplay:10.37,2013-03-30 15:05:00,
2013-03-30 11:10:00,48.2,32.8,30.13,WNW,284,3.4,8.1,55,0.00,FEW,,0.00,830.5,WeatherDisplay:10.37,2013-03-30 15:10:00,
2013-03-30 11:15:00,48.8,32.9,30.13,WNW,295,0.0,3.5,54,0.00,FEW,,0.00,840.7,WeatherDisplay:10.37,2013-03-30 15:15:00,
2013-03-30 11:20:00,49.1,32.2,30.13,NNW,348,2.6,3.5,52,0.00,FEW,,0.00,841.9,WeatherDisplay:10.37,2013-03-30 15:20:00,
2013-03-30 11:25:00,49.1,30.7,30.13,WNW,299,4.7,6.9,49,0.00,FEW,,0.00,859.9,WeatherDisplay:10.37,2013-03-30 15:25:00,
2013-03-30 11:30:00,49.3,29.4,30.13,WNW,302,1.9,3.5,46,0.00,FEW,,0.00,867.8,WeatherDisplay:10.37,2013-03-30 15:30:00,
2013-03-30 11:35:00,49.3,31.9,30.12,North,360,1.5,2.3,51,0.00,FEW,,0.00,872.4,WeatherDisplay:10.37,2013-03-30 15:35:00,
2013-03-30 11:40:00,49.4,30.5,30.12,NW,312,5.8,8.1,48,0.00,FEW,,0.00,881.4,WeatherDisplay:10.37,2013-03-30 15:40:00,
2013-03-30 11:45:00,49.6,30.7,30.12,NNW,344,3.2,4.6,48,0.00,FEW,,0.00,890.4,WeatherDisplay:10.37,2013-03-30 15:45:00,
2013-03-30 11:50:00,49.9,31.0,30.12,NE,44,1.2,3.5,48,0.00,FEW,,0.00,891.6,WeatherDisplay:10.37,2013-03-30 15:50:00,
2013-03-30 11:55:00,50.0,28.9,30.12,North,11,0.3,2.3,44,0.00,FEW,,0.00,919.8,WeatherDisplay:10.37,2013-03-30 15:55:00,
2013-03-30 12:00:00,50.1,30.6,30.12,WNW,299,3.9,6.0,47,0.00,FEW,,0.00,933.4,WeatherDisplay:10.37,2013-03-30 16:00:00,
2013-03-30 12:05:00,50.6,31.6,30.12,West,260,5.6,6.9,48,0.00,FEW,,0.00,909.6,WeatherDisplay:10.37,2013-03-30 16:05:00,
2013-03-30 12:10:00,51.1,30.5,30.12,NW,306,3.0,8.1,45,0.00,FEW,,0.00,919.8,WeatherDisplay:10.37,2013-03-30 16:10:00,
2013-03-30 12:15:00,51.1,27.6,30.11,WNW,303,1.0,4.0,40,0.00,FEW,,0.00,959.4,WeatherDisplay:10.37,2013-03-30 16:15:00,
2013-03-30 12:20:00,51.2,28.9,30.11,NW,306,2.0,7.0,42,0.00,FEW,,0.00,930.0,WeatherDisplay:10.37,2013-03-30 16:20:00,
2013-03-30 12:25:00,51.8,31.1,30.11,WNW,294,7.0,10.0,45,0.00,FEW,,0.00,933.4,WeatherDisplay:10.37,2013-03-30 16:25:00,
2013-03-30 12:30:00,52.5,30.0,30.11,NNW,333,3.6,5.8,42,0.00,FEW,,0.00,953.7,WeatherDisplay:10.37,2013-03-30 16:30:00,
2013-03-30 12:35:00,52.5,28.2,30.11,WNW,298,8.6,10.4,39,0.00,FEW,,0.00,946.9,WeatherDisplay:10.37,2013-03-30 16:35:00,
2013-03-30 12:40:00,52.4,27.5,30.10,West,281,8.5,10.0,38,0.00,FEW,,0.00,953.7,WeatherDisplay:10.37,2013-03-30 16:40:00,
2013-03-30 12:45:00,52.7,27.1,30.10,West,276,9.0,14.0,37,0.00,FEW,,0.00,971.8,WeatherDisplay:10.37,2013-03-30 16:45:00,
2013-03-30 12:50:00,52.8,27.2,30.10,West,278,8.9,12.7,37,0.00,FEW,,0.00,949.2,WeatherDisplay:10.37,2013-03-30 16:50:00,
2013-03-30 12:55:00,53.1,27.5,30.10,WNW,282,6.8,12.7,37,0.00,FEW,,0.00,953.7,WeatherDisplay:10.37,2013-03-30 16:55:00,
2013-03-30 13:00:00,53.3,27.0,30.10,West,280,11.9,16.1,36,0.00,FEW,,0.00,949.2,WeatherDisplay:10.37,2013-03-30 17:00:00,
2013-03-30 13:05:00,53.2,26.9,30.10,West,277,10.0,17.0,36,0.00,SCT,,0.00,941.3,WeatherDisplay:10.37,2013-03-30 17:05:00,
2013-03-30 13:10:00,53.3,28.3,30.10,WNW,293,6.8,13.8,38,0.00,SCT,,0.00,943.5,WeatherDisplay:10.37,2013-03-30 17:10:00,
2013-03-30 13:15:00,53.4,28.4,30.09,WNW,284,10.0,15.0,38,0.00,SCT,,0.00,951.5,WeatherDisplay:10.37,2013-03-30 17:15:00,
2013-03-30 13:20:00,54.0,28.9,30.09,West,272,9.4,11.5,38,0.00,SCT,,0.00,943.5,WeatherDisplay:10.37,2013-03-30 17:20:00,
2013-03-30 13:25:00,53.8,28.8,30.09,WNW,285,6.0,13.0,38,0.00,SCT,,0.00,946.9,WeatherDisplay:10.37,2013-03-30 17:25:00,
2013-03-30 13:30:00,53.7,29.3,30.09,WNW,287,12.0,17.0,39,0.00,SCT,,0.00,949.2,WeatherDisplay:10.37,2013-03-30 17:30:00,
2013-03-30 13:35:00,53.7,28.7,30.09,WNW,288,11.4,13.8,38,0.00,SCT,,0.00,953.7,WeatherDisplay:10.37,2013-03-30 17:35:00,
2013-03-30 13:40:00,53.5,29.1,30.09,WNW,289,8.0,16.0,39,0.00,SCT,,0.00,956.0,WeatherDisplay:10.37,2013-03-30 17:40:00,
2013-03-30 13:45:00,53.5,29.8,30.09,WNW,292,8.0,15.0,40,0.00,SCT,,0.00,967.3,WeatherDisplay:10.37,2013-03-30 17:45:00,
2013-03-30 13:50:00,53.3,28.3,30.08,WNW,293,9.5,14.0,38,0.00,SCT,,0.00,993.3,WeatherDisplay:10.37,2013-03-30 17:50:00,
2013-03-30 13:55:00,53.8,30.6,30.09,WNW,289,10.0,14.0,41,0.00,SCT,,0.00,993.3,WeatherDisplay:10.37,2013-03-30 17:55:00,
2013-03-30 14:00:00,54.3,30.5,30.08,NW,316,5.2,16.1,40,0.00,SCT,,0.00,969.5,WeatherDisplay:10.37,2013-03-30 18:00:00,
2013-03-30 14:05:00,54.1,29.7,30.08,WNW,300,1.0,7.0,39,0.00,SCT,,0.00,945.8,WeatherDisplay:10.37,2013-03-30 18:05:00,
2013-03-30 14:10:00,54.5,28.7,30.08,WNW,297,9.0,16.0,37,0.00,SCT,,0.00,965.0,WeatherDisplay:10.37,2013-03-30 18:10:00,
2013-03-30 14:15:00,54.3,27.9,30.08,WNW,288,4.4,7.0,36,0.00,SCT,,0.00,985.4,WeatherDisplay:10.37,2013-03-30 18:15:00,
2013-03-30 14:20:00,54.4,29.9,30.07,WNW,298,6.3,7.0,39,0.00,SCT,,0.00,1021.5,WeatherDisplay:10.37,2013-03-30 18:20:00,
2013-03-30 14:25:00,54.7,30.2,30.08,WNW,288,9.0,13.0,39,0.00,SCT,,0.00,971.8,WeatherDisplay:10.37,2013-03-30 18:25:00,
2013-03-30 14:30:00,54.9,30.4,30.08,NW,307,3.3,4.6,39,0.00,SCT,,0.00,233.9,WeatherDisplay:10.37,2013-03-30 18:30:00,
2013-03-30 14:35:00,53.8,29.4,30.08,WNW,302,2.0,6.0,39,0.00,SCT,,0.00,256.5,WeatherDisplay:10.37,2013-03-30 18:35:00,
2013-03-30 14:40:00,53.7,29.9,30.07,WNW,288,8.0,12.0,40,0.00,SCT,,0.00,1012.5,WeatherDisplay:10.37,2013-03-30 18:40:00,
2013-03-30 14:45:00,54.2,29.1,30.07,WNW,287,8.0,18.0,38,0.00,SCT,,0.00,946.9,WeatherDisplay:10.37,2013-03-30 18:45:00,
2013-03-30 14:50:00,53.8,29.4,30.07,WNW,294,7.3,11.5,39,0.00,SCT,,0.00,556.0,WeatherDisplay:10.37,2013-03-30 18:50:00,
2013-03-30 14:55:00,53.9,28.8,30.07,WNW,290,10.0,13.0,38,0.00,SCT,,0.00,991.0,WeatherDisplay:10.37,2013-03-30 18:55:00,
2013-03-30 15:00:00,53.5,27.8,30.07,WNW,293,6.8,7.0,37,0.00,SCT,,0.00,165.0,WeatherDisplay:10.37,2013-03-30 19:00:00,
2013-03-30 15:05:00,52.7,27.8,30.07,WNW,292,2.0,7.0,38,0.00,SCT,,0.00,151.4,WeatherDisplay:10.37,2013-03-30 19:05:00,
2013-03-30 15:10:00,51.9,28.3,30.07,NW,308,3.2,4.6,40,0.00,SCT,,0.00,176.3,WeatherDisplay:10.37,2013-03-30 19:10:00,
2013-03-30 15:15:00,52.4,28.1,30.07,WNW,295,3.3,4.0,39,0.00,SCT,,0.00,857.7,WeatherDisplay:10.37,2013-03-30 19:15:00,
2013-03-30 15:20:00,53.3,29.6,30.06,WNW,282,9.0,14.0,40,0.00,SCT,,0.00,888.2,WeatherDisplay:10.37,2013-03-30 19:20:00,
2013-03-30 15:25:00,54.4,29.3,30.07,WNW,296,7.1,11.5,38,0.00,SCT,,0.00,914.2,WeatherDisplay:10.37,2013-03-30 19:25:00,
2013-03-30 15:30:00,54.6,28.8,30.06,WNW,288,3.2,6.9,37,0.00,SCT,,0.00,705.1,WeatherDisplay:10.37,2013-03-30 19:30:00,
2013-03-30 15:35:00,54.4,28.6,30.07,WNW,285,3.0,8.0,37,0.00,SCT,,0.00,299.4,WeatherDisplay:10.37,2013-03-30 19:35:00,
2013-03-30 15:40:00,54.0,28.9,30.07,WNW,299,4.8,8.1,38,0.00,SCT,,0.00,274.6,WeatherDisplay:10.37,2013-03-30 19:40:00,
2013-03-30 15:45:00,53.9,27.5,30.06,NNW,329,0.7,1.0,36,0.00,SCT,,0.00,880.3,WeatherDisplay:10.37,2013-03-30 19:45:00,
2013-03-30 15:50:00,54.2,28.4,30.06,WNW,300,8.0,14.0,37,0.00,SCT,,0.00,814.7,WeatherDisplay:10.37,2013-03-30 19:50:00,
2013-03-30 15:55:00,54.8,29.0,30.06,WNW,294,4.8,6.9,37,0.00,SCT,,0.00,768.4,WeatherDisplay:10.37,2013-03-30 19:55:00,
2013-03-30 16:00:00,55.1,27.9,30.06,NNW,346,2.9,3.5,35,0.00,SCT,,0.00,752.6,WeatherDisplay:10.37,2013-03-30 20:00:00,
2013-03-30 16:05:00,55.0,29.2,30.06,West,280,8.4,12.7,37,0.00,FEW,,0.00,695.0,WeatherDisplay:10.37,2013-03-30 20:05:00,
2013-03-30 16:10:00,55.0,29.2,30.06,WNW,300,4.7,5.0,37,0.00,FEW,,0.00,697.2,WeatherDisplay:10.37,2013-03-30 20:10:00,
2013-03-30 16:15:00,55.1,27.9,30.06,WNW,286,11.3,13.8,35,0.00,FEW,,0.00,645.2,WeatherDisplay:10.37,2013-03-30 20:15:00,
2013-03-30 16:20:00,54.8,27.6,30.06,West,272,6.4,10.4,35,0.00,FEW,,0.00,649.8,WeatherDisplay:10.37,2013-03-30 20:20:00,
2013-03-30 16:25:00,54.8,27.6,30.06,West,275,6.3,12.7,35,0.00,FEW,,0.00,613.6,WeatherDisplay:10.37,2013-03-30 20:25:00,
2013-03-30 16:30:00,54.8,29.0,30.06,WNW,290,8.0,13.0,37,0.00,FEW,,0.00,618.1,WeatherDisplay:10.37,2013-03-30 20:30:00,
2013-03-30 16:35:00,54.8,27.6,30.06,WNW,283,8.0,12.0,35,0.00,FEW,,0.00,553.7,WeatherDisplay:10.37,2013-03-30 20:35:00,
2013-03-30 16:40:00,54.6,26.8,30.06,West,276,8.0,11.5,34,0.00,FEW,,0.00,526.6,WeatherDisplay:10.37,2013-03-30 20:40:00,
2013-03-30 16:45:00,54.3,27.2,30.06,WNW,290,9.0,13.0,35,0.00,FEW,,0.00,504.0,WeatherDisplay:10.37,2013-03-30 20:45:00,
2013-03-30 16:50:00,54.4,28.0,30.06,WNW,292,7.4,11.0,36,0.00,FEW,,0.00,482.5,WeatherDisplay:10.37,2013-03-30 20:50:00,
2013-03-30 16:55:00,54.6,28.2,30.06,West,281,10.0,12.0,36,0.00,FEW,,0.00,466.7,WeatherDisplay:10.37,2013-03-30 20:55:00,
2013-03-30 17:00:00,54.5,27.3,30.05,West,277,9.0,14.0,35,0.00,FEW,,0.00,448.6,WeatherDisplay:10.37,2013-03-30 21:00:00,
2013-03-30 17:05:00,53.8,27.4,30.06,West,273,7.0,15.0,36,0.00,FEW,,0.00,429.4,WeatherDisplay:10.37,2013-03-30 21:05:00,
2013-03-30 17:10:00,53.8,28.1,30.06,WNW,286,7.3,12.7,37,0.00,FEW,,0.00,413.6,WeatherDisplay:10.37,2013-03-30 21:10:00,
2013-03-30 17:15:00,53.7,27.4,30.06,WNW,289,9.1,11.5,36,0.00,FEW,,0.00,398.9,WeatherDisplay:10.37,2013-03-30 21:15:00,
2013-03-30 17:20:00,53.6,27.9,30.06,WNW,297,4.5,8.1,37,0.00,FEW,,0.00,381.9,WeatherDisplay:10.37,2013-03-30 21:20:00,
2013-03-30 17:25:00,53.2,27.6,30.06,WNW,295,8.0,15.0,37,0.00,FEW,,0.00,87.0,WeatherDisplay:10.37,2013-03-30 21:25:00,
2013-03-30 17:30:00,52.7,26.5,30.06,WNW,302,7.3,11.0,36,0.00,FEW,,0.00,340.1,WeatherDisplay:10.37,2013-03-30 21:30:00,
2013-03-30 17:35:00,52.4,26.2,30.06,WNW,291,7.9,11.5,36,0.00,FEW,,0.00,319.8,WeatherDisplay:10.37,2013-03-30 21:35:00,
2013-03-30 17:40:00,52.5,26.3,30.06,WNW,284,10.0,14.0,36,0.00,FEW,,0.00,167.2,WeatherDisplay:10.37,2013-03-30 21:40:00,
2013-03-30 17:45:00,52.2,26.7,30.06,WNW,303,5.7,8.1,37,0.00,FEW,,0.00,167.2,WeatherDisplay:10.37,2013-03-30 21:45:00,
2013-03-30 17:50:00,51.8,27.0,30.06,NW,308,9.1,11.5,38,0.00,FEW,,0.00,162.7,WeatherDisplay:10.37,2013-03-30 21:50:00,
2013-03-30 17:55:00,51.4,26.6,30.07,WNW,298,6.0,13.0,38,0.00,FEW,,0.00,168.4,WeatherDisplay:10.37,2013-03-30 21:55:00,
2013-03-30 18:00:00,51.3,26.5,30.06,WNW,285,12.0,16.0,38,0.00,FEW,,0.00,180.8,WeatherDisplay:10.37,2013-03-30 22:00:00,
2013-03-30 18:05:00,51.4,26.6,30.06,West,267,7.7,9.2,38,0.00,FEW,,0.00,133.3,WeatherDisplay:10.37,2013-03-30 22:05:00,
2013-03-30 18:10:00,51.5,26.7,30.06,West,278,7.3,10.4,38,0.00,FEW,,0.00,105.1,WeatherDisplay:10.37,2013-03-30 22:10:00,
2013-03-30 18:15:00,51.4,26.6,30.07,WNW,298,4.3,9.2,38,0.00,FEW,,0.00,107.3,WeatherDisplay:10.37,2013-03-30 22:15:00,
2013-03-30 18:20:00,51.3,26.5,30.07,WNW,297,5.0,12.0,38,0.00,FEW,,0.00,91.5,WeatherDisplay:10.37,2013-03-30 22:20:00,
2013-03-30 18:25:00,50.9,26.8,30.07,WNW,290,6.5,9.2,39,0.00,FEW,,0.00,79.1,WeatherDisplay:10.37,2013-03-30 22:25:00,
2013-03-30 18:30:00,50.7,26.6,30.07,WNW,282,7.0,12.0,39,0.00,FEW,,0.00,53.1,WeatherDisplay:10.37,2013-03-30 22:30:00,
2013-03-30 18:35:00,50.4,25.7,30.07,West,280,8.0,11.5,38,0.00,FEW,,0.00,39.5,WeatherDisplay:10.37,2013-03-30 22:35:00,
2013-03-30 18:40:00,50.1,26.1,30.07,WNW,291,6.0,9.0,39,0.00,FEW,,0.00,33.9,WeatherDisplay:10.37,2013-03-30 22:40:00,
2013-03-30 18:45:00,49.7,25.7,30.07,WNW,296,5.1,8.1,39,0.00,FEW,,0.00,26.0,WeatherDisplay:10.37,2013-03-30 22:45:00,
2013-03-30 18:50:00,49.3,26.0,30.07,WNW,294,7.0,9.0,40,0.00,FEW,,0.00,21.5,WeatherDisplay:10.37,2013-03-30 22:50:00,
2013-03-30 18:55:00,49.0,25.7,30.08,West,265,9.3,11.5,40,0.00,FEW,,0.00,18.1,WeatherDisplay:10.37,2013-03-30 22:55:00,
2013-03-30 19:00:00,48.7,25.4,30.08,West,271,6.6,8.1,40,0.00,FEW,,0.00,13.6,WeatherDisplay:10.37,2013-03-30 23:00:00,
2013-03-30 19:05:00,48.5,25.2,30.08,West,281,7.0,10.0,40,0.00,FEW,,0.00,12.4,WeatherDisplay:10.37,2013-03-30 23:05:00,
2013-03-30 19:10:00,48.2,25.6,30.08,WNW,290,5.5,9.2,41,0.00,FEW,,0.00,7.9,WeatherDisplay:10.37,2013-03-30 23:10:00,
2013-03-30 19:15:00,48.0,25.4,30.08,WNW,290,3.9,4.6,41,0.00,FEW,,0.00,5.7,WeatherDisplay:10.37,2013-03-30 23:15:00,
2013-03-30 19:20:00,47.7,25.1,30.08,WNW,292,7.0,10.0,41,0.00,FEW,,0.00,0.0,WeatherDisplay:10.37,2013-03-30 23:20:00,
2013-03-30 19:25:00,47.4,24.9,30.08,WNW,292,6.8,7.0,41,0.00,FEW,,0.00,0.0,WeatherDisplay:10.37,2013-03-30 23:25:00,
2013-03-30 19:30:00,47.2,25.3,30.08,WNW,290,6.0,8.0,42,0.00,FEW,,0.00,0.0,WeatherDisplay:10.37,2013-03-30 23:30:00,
2013-03-30 19:35:00,46.9,25.0,30.08,WNW,287,3.0,7.0,42,0.00,FEW,,0.00,0.0,WeatherDisplay:10.37,2013-03-30 23:35:00,
2013-03-30 19:40:00,46.7,24.8,30.09,WNW,289,3.2,3.5,42,0.00,FEW,,0.00,0.0,WeatherDisplay:10.37,2013-03-30 23:40:00,
2013-03-30 19:45:00,46.5,25.7,30.09,WNW,289,3.0,5.0,44,0.00,FEW,,0.00,0.0,WeatherDisplay:10.37,2013-03-30 23:45:00,
2013-03-30 19:50:00,46.1,25.4,30.09,WNW,296,4.0,5.8,44,0.00,FEW,,0.00,0.0,WeatherDisplay:10.37,2013-03-30 23:50:00,
2013-03-30 19:55:00,46.0,24.7,30.09,West,281,4.2,6.9,43,0.00,FEW,,0.00,0.0,WeatherDisplay:10.37,2013-03-30 23:55:00,
2013-03-30 20:00:00,45.9,25.2,30.10,WNW,287,5.0,7.0,44,0.00,FEW,,0.00,0.0,WeatherDisplay:10.37,2013-03-31 00:00:00,
2013-03-30 20:05:00,45.8,25.6,30.10,WNW,284,4.5,6.0,45,0.00,CLR,,0.00,0.0,WeatherDisplay:10.37,2013-03-31 00:05:00,
2013-03-30 20:10:00,45.6,25.5,30.10,WNW,294,3.9,4.6,45,0.00,CLR,,0.00,0.0,WeatherDisplay:10.37,2013-03-31 00:10:00,
2013-03-30 20:15:00,45.5,25.9,30.10,WNW,291,3.0,6.0,46,0.00,CLR,,0.00,0.0,WeatherDisplay:10.37,2013-03-31 00:15:00,
2013-03-30 20:20:00,45.3,25.7,30.10,WNW,286,4.0,5.8,46,0.00,CLR,,0.00,0.0,WeatherDisplay:10.37,2013-03-31 00:20:00,
2013-03-30 20:25:00,45.1,25.5,30.10,WNW,284,3.6,5.8,46,0.00,CLR,,0.00,0.0,WeatherDisplay:10.37,2013-03-31 00:25:00,
2013-03-30 20:30:00,45.0,26.0,30.11,WNW,288,3.0,6.0,47,0.00,CLR,,0.00,0.0,WeatherDisplay:10.37,2013-03-31 00:30:00,
2013-03-30 20:35:00,44.9,25.9,30.11,WNW,292,3.1,3.5,47,0.00,CLR,,0.00,0.0,WeatherDisplay:10.37,2013-03-31 00:35:00,
2013-03-30 20:40:00,44.8,26.2,30.11,WNW,292,3.0,5.0,48,0.00,CLR,,0.00,0.0,WeatherDisplay:10.37,2013-03-31 00:40:00,
2013-03-30 20:45:00,44.6,26.1,30.11,WNW,292,2.0,4.0,48,0.00,CLR,,0.00,0.0,WeatherDisplay:10.37,2013-03-31 00:45:00,
2013-03-30 20:50:00,44.4,25.9,30.11,WNW,292,2.8,3.5,48,0.00,CLR,,0.00,0.0,WeatherDisplay:10.37,2013-03-31 00:50:00,
2013-03-30 20:55:00,44.2,25.7,30.11,WNW,293,2.4,3.5,48,0.00,CLR,,0.00,0.0,WeatherDisplay:10.37,2013-03-31 00:55:00,
2013-03-30 21:00:00,44.1,25.6,30.11,WNW,292,3.3,4.6,48,0.00,CLR,,0.00,0.0,WeatherDisplay:10.37,2013-03-31 01:00:00,
2013-03-30 21:05:00,44.1,25.6,30.11,WNW,299,5.4,5.8,48,0.00,CLR,,0.00,0.0,WeatherDisplay:10.37,2013-03-31 01:05:00,
2013-03-30 21:10:00,44.2,25.7,30.11,WNW,297,3.0,6.0,48,0.00,CLR,,0.00,0.0,WeatherDisplay:10.37,2013-03-31 01:10:00,
2013-03-30 21:15:00,44.2,25.7,30.11,WNW,298,3.3,6.9,48,0.00,CLR,,0.00,0.0,WeatherDisplay:10.37,2013-03-31 01:15:00,
2013-03-30 21:20:00,44.1,25.6,30.11,WNW,300,2.8,3.5,48,0.00,CLR,,0.00,0.0,WeatherDisplay:10.37,2013-03-31 01:20:00,
2013-03-30 21:25:00,44.1,26.1,30.11,WNW,300,3.0,6.0,49,0.00,CLR,,0.00,0.0,WeatherDisplay:10.37,2013-03-31 01:25:00,
2013-03-30 21:30:00,43.9,26.4,30.11,WNW,303,2.9,4.0,50,0.00,CLR,,0.00,0.0,WeatherDisplay:10.37,2013-03-31 01:30:00,
2013-03-30 21:35:00,43.7,26.3,30.11,WNW,303,2.8,4.0,50,0.00,CLR,,0.00,0.0,WeatherDisplay:10.37,2013-03-31 01:35:00,
2013-03-30 21:40:00,43.6,25.6,30.11,WNW,298,1.0,7.0,49,0.00,CLR,,0.00,0.0,WeatherDisplay:10.37,2013-03-31 01:40:00,
2013-03-30 21:45:00,43.3,25.4,30.11,WNW,293,1.0,3.0,49,0.00,CLR,,0.00,0.0,WeatherDisplay:10.37,2013-03-31 01:45:00,
2013-03-30 21:50:00,43.1,25.7,30.11,WNW,293,0.0,2.0,50,0.00,CLR,,0.00,0.0,WeatherDisplay:10.37,2013-03-31 01:50:00,
2013-03-30 21:55:00,42.7,25.3,30.11,WNW,293,0.0,0.0,50,0.00,CLR,,0.00,0.0,WeatherDisplay:10.37,2013-03-31 01:55:00,
2013-03-30 22:00:00,41.4,26.4,30.11,WSW,240,1.3,3.5,55,0.00,CLR,,0.00,0.0,WeatherDisplay:10.37,2013-03-31 02:00:00,
2013-03-30 22:05:00,39.6,26.0,30.11,West,267,1.0,2.0,58,0.00,CLR,,0.00,0.0,WeatherDisplay:10.37,2013-03-31 02:05:00,
2013-03-30 22:10:00,38.4,25.7,30.11,South,172,0.0,0.0,60,0.00,CLR,,0.00,0.0,WeatherDisplay:10.37,2013-03-31 02:10:00,
2013-03-30 22:15:00,37.8,26.0,30.11,South,172,0.0,1.0,62,0.00,CLR,,0.00,0.0,WeatherDisplay:10.37,2013-03-31 02:15:00,
2013-03-30 22:20:00,37.2,25.8,30.11,SSE,152,1.9,3.5,63,0.00,CLR,,0.00,0.0,WeatherDisplay:10.37,2013-03-31 02:20:00,
2013-03-30 22:25:00,36.9,25.9,30.11,SE,126,0.0,1.2,64,0.00,CLR,,0.00,0.0,WeatherDisplay:10.37,2013-03-31 02:25:00,
2013-03-30 22:30:00,36.5,25.8,30.11,SE,126,0.0,0.0,65,0.00,CLR,,0.00,0.0,WeatherDisplay:10.37,2013-03-31 02:30:00,
2013-03-30 22:35:00,36.3,25.3,30.11,SE,126,0.0,0.0,64,0.00,CLR,,0.00,0.0,WeatherDisplay:10.37,2013-03-31 02:35:00,
2013-03-30 22:40:00,36.3,25.7,30.11,SE,126,0.0,0.0,65,0.00,CLR,,0.00,0.0,WeatherDisplay:10.37,2013-03-31 02:40:00,
2013-03-30 22:45:00,36.1,25.5,30.12,SE,126,0.0,0.0,65,0.00,CLR,,0.00,0.0,WeatherDisplay:10.37,2013-03-31 02:45:00,
2013-03-30 22:50:00,35.9,25.6,30.11,SE,126,0.0,0.0,66,0.00,CLR,,0.00,0.0,WeatherDisplay:10.37,2013-03-31 02:50:00,
2013-03-30 22:55:00,35.5,25.6,30.11,SE,126,0.0,0.0,67,0.00,CLR,,0.00,0.0,WeatherDisplay:10.37,2013-03-31 02:55:00,
2013-03-30 23:00:00,35.3,25.1,30.12,SE,126,0.0,0.0,66,0.00,CLR,,0.00,0.0,WeatherDisplay:10.37,2013-03-31 03:00:00,
2013-03-30 23:05:00,35.2,25.0,30.12,SE,134,0.0,1.2,66,0.00,CLR,,0.00,0.0,WeatherDisplay:10.37,2013-03-31 03:05:00,
2013-03-30 23:10:00,35.1,25.2,30.12,SE,134,0.7,2.3,67,0.00,CLR,,0.00,0.0,WeatherDisplay:10.37,2013-03-31 03:10:00,
2013-03-30 23:15:00,34.9,25.4,30.12,SE,134,0.0,1.2,68,0.00,CLR,,0.00,0.0,WeatherDisplay:10.37,2013-03-31 03:15:00,
2013-03-30 23:20:00,34.7,25.2,30.12,SE,134,0.0,0.0,68,0.00,CLR,,0.00,0.0,WeatherDisplay:10.37,2013-03-31 03:20:00,
2013-03-30 23:25:00,34.6,25.1,30.12,SE,134,0.1,1.2,68,0.00,CLR,,0.00,0.0,WeatherDisplay:10.37,2013-03-31 03:25:00,
2013-03-30 23:30:00,34.3,25.2,30.12,SE,134,1.0,3.5,69,0.00,CLR,,0.00,0.0,WeatherDisplay:10.37,2013-03-31 03:30:00,
2013-03-30 23:35:00,34.0,25.2,30.12,SE,134,0.1,1.2,70,0.00,CLR,,0.00,0.0,WeatherDisplay:10.37,2013-03-31 03:35:00,
2013-03-30 23:40:00,33.6,24.9,30.12,SE,132,1.7,3.5,70,0.00,CLR,,0.00,0.0,WeatherDisplay:10.37,2013-03-31 03:40:00,
2013-03-30 23:45:00,33.3,24.9,30.12,SE,129,2.9,4.0,71,0.00,CLR,,0.00,0.0,WeatherDisplay:10.37,2013-03-31 03:45:00,
2013-03-30 23:50:00,32.9,24.9,30.12,SE,129,0.8,2.3,72,0.00,CLR,,0.00,0.0,WeatherDisplay:10.37,2013-03-31 03:50:00,
2013-03-30 23:55:00,32.4,24.7,30.12,SE,129,0.0,0.0,73,0.00,CLR,,0.00,0.0,WeatherDisplay:10.37,2013-03-31 03:55:00,